Location: Eschertshofen
(49.3064°N, 11.5756°E)
Time: 03:24:08
(UTC+00:00)

Cosmos 1025 Rocket - Pass Details

Date: 18 September 2020
Orbit: 595 x 617 km, 82.5° (Epoch: 19 October)

Event Time Altitude Azimuth Distance (km) Brightness Sun altitude
Rises 18:45:22 0° 350° (N) 2,884 6.9 -14.5°
Reaches altitude 10° 18:47:35 10° 351° (N) 1,979 6.0 -14.8°
Maximum altitude 18:51:59 83° 80° (E) 625 2.9 -15.5°
Enters shadow 18:56:10 11° 169° (SSE) 1,894 5.2 -16.1°
